| time (UTC) | temp F | wind direction | speed MPH | gust MPH | rain 1hr in | rain 24hr in | rain mn in | humidity % | barometer mb |
| 20260505120017 | 59 | 0.0 | 0.0 | 0.00 | 0.00 | 0.00 | 76 | 1010.8 | |
| 20260505113016 | 55 | 0.0 | 0.0 | 0.00 | 0.00 | 0.00 | 86 | 1010.5 | |
| 20260505100017 | 54 | 0.0 | 0.0 | 0.00 | 0.00 | 0.00 | 84 | 1009.8 | |
| 20260505093017 | 55 | 0.0 | 0.0 | 0.00 | 0.00 | 0.00 | 82 | 1009.8 | |
| 20260505090017 | 55 | 0.0 | 0.0 | 0.00 | 0.00 | 0.00 | 82 | 1009.8 | |
| 20260505083017 | 55 | 0.0 | 0.0 | 0.00 | 0.00 | 0.00 | 80 | 1009.7 | |
| 20260505080017 | 56 | 0.0 | 0.0 | 0.00 | 0.00 | 0.00 | 78 | 1009.6 | |
| 20260505073017 | 55 | 0.0 | 0.0 | 0.00 | 0.00 | 0.00 | 78 | 1009.7 | |
| 20260505070017 | 55 | 0.0 | 0.0 | 0.00 | 0.00 | 0.00 | 76 | 1009.9 | |
| 20260505063017 | 55 | 0.0 | 0.0 | 0.00 | 0.00 | 0.00 | 76 | 1009.8 | |
| 20260505060017 | 55 | 0.0 | 0.0 | 0.00 | 0.00 | 0.00 | 71 | 1009.7 | |
| 20260505053017 | 57 | 0.0 | 0.0 | 0.00 | 0.00 | 0.00 | 67 | 1009.7 | |
| 20260505040017 | 61 | 0.0 | 0.0 | 0.00 | 0.00 | 0.00 | 57 | 1009.7 | |
| 20260505033017 | 62 | 0.0 | 0.0 | 0.00 | 0.00 | 0.00 | 53 | 1009.6 | |
| 20260505030017 | 63 | 0.0 | 1.0 | 0.00 | 0.00 | 0.00 | 51 | 1009.7 | |
| 20260505023017 | 64 | 0.0 | 0.0 | 0.00 | 0.00 | 0.00 | 50 | 1009.7 | |
| 20260505020017 | 63 | 0.0 | 0.0 | 0.00 | 0.00 | 0.00 | 51 | 1009.8 | |
| 20260505013037 | 64 | 0.0 | 1.0 | 0.00 | 0.00 | 0.00 | 48 | 1009.7 | |
| 20260505010017 | 66 | 0.0 | 2.0 | 0.00 | 0.00 | 0.00 | 46 | 1009.6 | |
| 20260505003017 | 67 | 0.0 | 6.0 | 0.00 | 0.00 | 0.00 | 43 | 1009.2 | |
| 20260505000017 | 68 | 203 | 1.0 | 5.0 | 0.00 | 0.00 | 0.00 | 41 | 1009.0 |
| 20260504233017 | 70 | 203 | 3.0 | 17.0 | 0.00 | 0.00 | 0.00 | 40 | 1008.7 |
| 20260504230017 | 71 | 203 | 3.0 | 12.0 | 0.00 | 0.00 | 0.00 | 39 | 1008.5 |
| 20260504223017 | 72 | 203 | 3.0 | 15.0 | 0.00 | 0.00 | 0.00 | 39 | 1008.4 |
| 20260504220017 | 72 | 203 | 4.0 | 11.0 | 0.00 | 0.00 | 0.00 | 38 | 1008.5 |
| 20260504213017 | 73 | 225 | 4.0 | 16.0 | 0.00 | 0.00 | 0.00 | 37 | 1008.4 |
| 20260504210017 | 74 | 225 | 4.0 | 11.0 | 0.00 | 0.00 | 0.00 | 35 | 1008.7 |
| 20260504203017 | 73 | 225 | 4.0 | 18.0 | 0.00 | 0.00 | 0.00 | 36 | 1008.8 |
| 20260504200037 | 72 | 203 | 5.0 | 19.0 | 0.00 | 0.00 | 0.00 | 39 | 1009.0 |
| 20260504193017 | 72 | 225 | 5.0 | 22.0 | 0.00 | 0.00 | 0.00 | 38 | 1009.5 |
| 20260504190017 | 72 | 225 | 4.0 | 15.0 | 0.00 | 0.00 | 0.00 | 36 | 1009.7 |
| 20260504183017 | 71 | 225 | 4.0 | 19.0 | 0.00 | 0.00 | 0.00 | 36 | 1010.3 |
| 20260504180017 | 70 | 203 | 5.0 | 18.0 | 0.00 | 0.00 | 0.00 | 37 | 1010.6 |
| 20260504173017 | 70 | 225 | 5.0 | 18.0 | 0.00 | 0.00 | 0.00 | 39 | 1011.1 |